Orbital Elements at Epoch 2455923.5 (2011-Dec-28.0) TDB
Reference: JPL 47 (heliocentric ecliptic J2000)
Element | Value | Uncertainty (1-sigma) | Units |
e | .5086500131730638 | 1.9147e-07 | |
a | 3.728070672183673 | 7.756e-08 | au |
q | 1.831787475667335 | 7.4965e-07 | au |
i | 16.33407180054497 | 1.0272e-05 | deg |
node | 245.6614983871737 | 3.3291e-05 | deg |
peri | 119.335348443356 | 7.4541e-05 | deg |
M | 65.07648840031572 | 1.8859e-05 | deg |
tp | 2455448.223609785751 (2010-Sep-08.72360979) | 0.00014135 | TDB |
period | 2629.206103203005 7.20 | 8.2048e-05 2.246e-07 | d yr |
n | .1369234612537349 | 4.2729e-09 | deg/d |
Q | 5.624353868700011 | 1.1701e-07 | au |
|
| | Orbit Determination Parameters
Additional Information
|